Find Starlink 37242

NORAD ID: 68728 Int'l Des: 2026-082 Owner: SPXS Country: US Constellation: starlink operational
LEOCIRCULAR

当前视图

正在加载3D地球...

关于 Starlink 37242

正在加载描述...

即将过境

Passes for default location (London). Set your location on the main map for personalized predictions.

高度历史

Loading altitude history...

两行轨道根数

1 68728U 26082A 26150.57619199 .00041942 00000-0 76782-3 0 9993
2 68728 97.2844 14.2398 0001553 97.6559 262.4869 15.49222899 6991
Epoch: May 30, 2026 • Age: 13 hours

当前状态

高度 440.1 km
速度 7.65 km/s
星下点 -52.50°S, 111.85°W
发射日期 Apr 15, 2026
运行时间 0.1 years
类型 internet

技术详情

分类 Payload
质量 575.00 kg
干质量 530.00 kg
总质量 575.00 kg
长度 0.30 m
直径 4.10 m
跨度 29.00 m
形状 Box + pan
制造商 SPXS
平台类型 Starlink V2MO
阶段状态 In Orbit
所有者/国家 SPXS/US

Most Searched